Temp
91 91 81 83 83 83 83 82 82 83 83 83 83 83 83 83 83 83 82 81 81 80 80 79 79 79 80 81 81 83 83 83 83 83 83 83 83 83 83 84 84 91 83
95 93 82 83 83 83 83 82 83 83 83 83 83 83 83 83 82 82 83 82 82 81 81 81 81 82 82 83 84 84 84 84 84 84 84 84 83 83 83 85 85 87 83
95 93 89 83 83 83 82 82 83 83 83 84 84 84 84 84 83 82 83 83 82 83 84 83 83 83 84 84 84 84 83 83 84 85 84 91 88 83 84 83 83 83 83
97 97 94 82 83 83 82 83 83 83 83 83 83 84 84 84 83 83 83 82 83 84 84 84 83 83 84 84 83 83 83 83 82 84 92 93 93 82 83 83 83 83 83
97 98 92 82 83 82 82 83 83 83 83 83 83 83 84 84 84 84 82 83 84 84 84 85 84 83 84 83 83 83 83 82 84 89 93 91 92 86 83 83 83 83 83
97 99 85 83 82 82 83 83 83 83 83 83 84 84 84 84 84 84 84 84 84 84 84 84 85 84 84 84 84 83 82 82 85 93 92 90 91 84 83 83 83 83 82
96 97 93 83 83 83 83 83 84 83 83 83 83 84 84 84 84 84 84 84 84 85 84 84 84 84 84 84 84 83 83 83 91 91 93 95 90 82 83 83 83 83 82
97 97 93 83 83 83 83 83 83 84 83 83 84 84 84 84 84 84 84 84 84 84 84 84 84 84 84 84 83 83 84 85 91 91 92 95 83 83 84 83 83 83 83
97 97 95 95 87 83 83 83 83 83 83 84 83 84 84 84 84 84 84 84 85 84 84 84 84 83 84 84 84 84 83 84 93 93 95 96 80 83 84 83 83 82 82
94 94 95 94 94 93 93 83 83 83 84 84 83 83 84 84 84 84 84 84 85 85 84 84 84 83 83 83 83 84 83 84 96 94 96 93 81 83 84 83 83 82 82
91 91 95 96 91 84 87 85 84 83 83 84 85 83 84 95 93 90 84 84 84 84 84 84 83 83 83 83 83 83 84 100 99 98 99 80 81 82 84 83 83 82 82
91 91 93 95 93 92 90 80 87 91 94 94 92 89 94 92 93 93 88 84 84 84 84 84 84 83 84 97 94 86 97 97 97 98 99 81 81 82 83 84 83 82 82
94 94 93 90 91 93 84 91 91 92 91 93 88 90 91 93 92 95 95 93 93 85 94 89 90 93 94 95 96 95 98 96 99 99 91 81 81 82 83 84 83 83 82
93 93 95 93 91 91 94 93 92 85 90 91 92 89 87 89 92 93 95 94 92 96 93 93 95 92 91 91 92 94 95 95 97 99 96 81 81 82 83 83 83 83 83
93 94 95 93 89 89 88 93 94 86 83 90 92 91 93 92 88 91 91 90 90 97 94 93 92 92 91 92 94 93 92 95 96 97 97 83 81 81 82 83 83 83 83
94 95 95 91 90 91 89 88 90 93 86 84 84 93 86 87 91 92 89 91 87 95 95 93 92 91 92 93 90 92 93 95 94 94 96 95 82 81 82 82 83 83 84
95 95 95 93 93 90 89 90 91 94 85 86 92 89 89 90 88 86 89 89 90 90 88 87 88 87 86 91 88 89 92 91 92 93 95 97 95 81 82 82 81 82 82
93 83 92 96 95 93 92 91 93 96 93 93 96 94 90 89 89 88 93 92 93 90 86 85 88 87 82 88 90 92 90 93 93 94 95 96 98 99 85 82 82 83 83
93 91 88 92 86 93 91 92 92 86 86 81 93 96 90 90 90 89 93 95 90 92 91 87 81 81 82 88 90 92 94 92 94 97 95 95 96 97 99 85 81 82 83
93 92 91 81 90 90 91 90 93 94 90 91 95 94 88 91 89 89 93 90 90 92 88 91 85 91 88 85 91 94 95 96 96 97 97 97 97 97 97 96 95 93 81
91 91 89 86 75 90 90 90 91 91 93 88 90 79 85 90 89 88 91 91 89 86 86 88 89 86 89 93 89 91 94 96 97 96 97 98 97 97 98 96 94 97 95
89 90 88 87 88 89 92 91 94 93 94 95 95 90 88 88 88 88 87 89 88 89 87 86 86 82 87 90 85 84 82 91 94 97 98 98 97 99 97 95 94 94 94
88 89 88 83 87 89 90 90 87 91 91 90 90 94 90 89 89 88 88 86 87 88 88 83 83 83 84 85 85 78 77 75 82 96 92 92 93 96 96 92 94 93 93
90 91 88 86 86 88 88 89 86 88 87 86 87 79 91 88 88 90 88 87 86 85 84 84 90 82 82 80 79 80 80 78 81 82 91 90 88 91 93 95 93 90 94
91 90 89 87 86 88 87 86 88 84 88 90 90 85 85 86 87 88 84 82 85 87 86 86 86 84 83 83 82 78 80 79 81 80 82 81 91 92 94 96 97 97 96
91 91 90 86 85 86 86 86 85 86 87 86 83 88 84 87 85 81 81 81 81 84 84 84 81 83 81 79 81 78 77 75 75 77 82 87 83 90 88 94 95 97 97
MSLP
1012.12 1012.95 1014.02 1014.12 1014.29 1014.25 1014.35 1014.48 1014.42 1014.41 1014.40 1014.46 1014.34 1014.39 1014.40 1014.50 1014.52 1014.48 1014.60 1014.82 1014.84 1015.21 1015.33 1015.51 1015.56 1015.77 1015.76 1015.78 1015.77 1016.02 1016.03 1016.35 1016.48 1016.49 1016.61 1016.75 1017.20 1017.29 1017.23 1017.02 1016.94 1017.00 1017.63
1012.03 1012.91 1014.12 1014.33 1014.51 1014.58 1014.68 1014.79 1014.68 1014.73 1014.66 1014.75 1014.70 1014.76 1014.76 1014.88 1015.04 1014.99 1014.98 1015.04 1015.07 1015.39 1015.37 1015.61 1015.72 1015.83 1015.87 1015.93 1016.00 1016.06 1016.32 1016.74 1016.66 1016.77 1017.07 1017.04 1017.42 1017.56 1017.39 1017.07 1017.10 1017.67 1017.92
1012.13 1013.04 1013.90 1014.49 1014.69 1014.89 1015.01 1014.91 1014.88 1014.94 1014.95 1014.96 1015.01 1015.05 1015.05 1015.12 1015.21 1015.34 1015.31 1015.50 1015.52 1015.54 1015.49 1015.77 1015.90 1015.78 1015.93 1016.23 1016.46 1016.59 1016.79 1017.05 1017.02 1016.88 1016.95 1016.55 1017.37 1017.65 1017.63 1017.62 1017.82 1018.08 1018.22
1012.18 1012.67 1013.50 1014.66 1014.83 1015.03 1015.14 1015.10 1015.10 1015.18 1015.26 1015.27 1015.28 1015.27 1015.28 1015.38 1015.53 1015.68 1015.78 1015.99 1015.99 1015.80 1015.96 1016.06 1016.27 1016.46 1016.32 1016.57 1016.95 1017.00 1017.13 1017.28 1017.43 1016.98 1016.47 1016.77 1017.08 1018.16 1018.16 1018.16 1017.94 1018.26 1018.43
1012.12 1012.35 1013.93 1014.81 1014.95 1015.02 1015.31 1015.23 1015.28 1015.37 1015.43 1015.50 1015.57 1015.54 1015.53 1015.59 1015.72 1015.88 1016.22 1016.18 1016.16 1016.30 1016.44 1016.40 1016.52 1016.66 1016.87 1017.06 1016.99 1017.20 1017.50 1017.53 1017.47 1017.05 1016.68 1017.08 1017.06 1018.30 1018.49 1018.32 1018.30 1018.46 1018.51
1012.34 1012.45 1014.57 1014.94 1015.05 1015.21 1015.24 1015.41 1015.46 1015.50 1015.52 1015.65 1015.68 1015.76 1015.84 1015.93 1016.06 1016.13 1016.34 1016.56 1016.48 1016.61 1016.76 1016.80 1016.93 1017.01 1017.23 1017.31 1017.39 1017.51 1017.73 1017.77 1017.51 1016.75 1016.96 1017.60 1017.42 1018.55 1018.55 1018.47 1018.53 1018.65 1018.85
1012.46 1012.97 1014.17 1015.09 1015.25 1015.34 1015.36 1015.47 1015.60 1015.70 1015.73 1015.75 1015.86 1015.91 1016.00 1016.12 1016.34 1016.44 1016.51 1016.57 1016.67 1016.83 1017.02 1017.13 1017.25 1017.28 1017.53 1017.63 1017.85 1017.71 1017.87 1018.03 1017.53 1017.14 1016.93 1016.92 1018.01 1018.90 1018.70 1018.74 1018.80 1018.85 1019.11
1012.68 1013.09 1014.23 1015.33 1015.45 1015.56 1015.55 1015.66 1015.79 1015.83 1015.96 1015.95 1015.91 1016.03 1016.17 1016.25 1016.40 1016.59 1016.76 1016.83 1016.94 1017.09 1017.23 1017.40 1017.51 1017.50 1017.70 1017.75 1018.04 1017.84 1017.91 1018.00 1017.35 1017.41 1017.23 1016.93 1018.68 1018.84 1018.87 1018.92 1018.92 1019.04 1019.33
1013.00 1013.14 1013.88 1014.39 1015.36 1015.71 1015.80 1015.85 1015.91 1015.98 1016.10 1016.11 1016.09 1016.10 1016.29 1016.47 1016.53 1016.60 1016.67 1016.86 1016.95 1017.06 1017.27 1017.45 1017.60 1017.63 1017.87 1017.98 1017.88 1017.98 1018.00 1017.78 1017.21 1017.35 1017.03 1017.03 1018.80 1018.98 1018.96 1019.11 1019.07 1019.20 1019.45
1013.38 1013.69 1013.88 1014.32 1014.56 1014.71 1015.19 1016.00 1016.10 1016.13 1016.17 1016.28 1016.34 1016.33 1016.35 1016.50 1016.62 1016.69 1016.75 1016.84 1016.97 1017.19 1017.23 1017.47 1017.52 1017.63 1017.74 1017.97 1018.01 1018.01 1017.77 1017.62 1016.76 1017.25 1016.89 1017.61 1018.63 1018.97 1019.05 1019.21 1019.22 1019.35 1019.51
1013.84 1014.13 1013.85 1014.09 1014.88 1015.63 1015.78 1015.98 1016.19 1016.29 1016.40 1016.35 1016.40 1016.58 1016.35 1015.49 1015.94 1016.17 1016.77 1016.98 1017.10 1017.25 1017.40 1017.50 1017.75 1017.83 1017.85 1017.77 1017.98 1018.04 1017.46 1016.23 1016.35 1016.65 1016.50 1017.98 1018.72 1018.94 1018.99 1019.20 1019.28 1019.43 1019.56
1013.41 1014.06 1014.16 1014.07 1014.53 1015.00 1015.49 1016.34 1016.06 1015.71 1015.58 1015.62 1015.75 1016.07 1015.69 1015.85 1015.87 1015.84 1016.55 1017.07 1017.15 1017.27 1017.35 1017.50 1017.66 1017.75 1017.59 1016.47 1016.92 1017.61 1016.53 1016.62 1016.61 1016.55 1016.41 1017.96 1018.56 1018.75 1018.84 1019.02 1019.10 1019.26 1019.51
1012.99 1013.59 1014.30 1014.86 1015.06 1014.78 1015.61 1015.66 1015.82 1015.92 1016.05 1015.94 1016.29 1016.04 1015.99 1015.90 1015.94 1015.72 1015.75 1016.01 1016.25 1017.06 1016.30 1016.89 1017.04 1016.75 1016.31 1016.47 1016.52 1016.58 1016.38 1016.53 1016.17 1016.21 1016.73 1017.76 1018.26 1018.50 1018.67 1018.68 1018.79 1019.03 1019.33
1013.00 1013.57 1013.94 1014.50 1014.94 1015.08 1015.00 1015.13 1015.18 1016.20 1016.10 1015.99 1015.82 1016.24 1016.38 1016.22 1015.79 1015.74 1015.47 1015.79 1016.20 1015.71 1016.17 1016.31 1016.08 1016.42 1016.73 1016.99 1016.94 1016.44 1016.37 1016.37 1016.22 1015.95 1016.01 1017.12 1017.77 1018.18 1018.36 1018.36 1018.43 1018.67 1018.94
1012.90 1013.42 1013.80 1014.43 1015.11 1015.27 1015.47 1015.09 1015.15 1015.99 1016.30 1016.11 1015.69 1015.92 1015.84 1015.70 1016.08 1015.84 1015.82 1016.39 1016.39 1015.63 1015.91 1016.11 1016.39 1016.35 1016.44 1016.43 1016.25 1016.26 1016.45 1016.19 1016.08 1015.95 1015.81 1016.63 1017.36 1017.83 1017.96 1017.96 1017.95 1018.16 1018.37
1012.71 1013.14 1013.75 1014.45 1014.88 1015.09 1015.39 1015.54 1015.46 1015.26 1016.19 1016.26 1016.18 1015.64 1016.31 1016.09 1015.82 1015.57 1015.88 1015.82 1016.24 1015.76 1015.82 1016.07 1016.03 1016.07 1015.98 1015.73 1016.20 1016.25 1015.98 1015.69 1015.76 1016.01 1015.71 1015.68 1016.50 1017.12 1017.38 1017.45 1017.47 1017.71 1017.94
1012.59 1013.05 1013.51 1014.16 1014.46 1015.03 1015.26 1015.39 1015.31 1015.12 1015.69 1016.15 1015.83 1015.87 1016.04 1015.95 1016.16 1016.15 1015.91 1016.07 1016.21 1016.12 1016.29 1016.29 1016.22 1016.35 1016.53 1016.14 1016.09 1016.25 1015.70 1015.73 1015.40 1015.32 1015.39 1015.32 1015.14 1016.11 1016.55 1016.83 1016.96 1017.12 1017.40
1012.73 1013.87 1013.80 1013.84 1014.12 1014.59 1014.83 1015.10 1015.05 1014.97 1015.51 1015.39 1015.30 1015.43 1015.77 1015.94 1016.10 1016.11 1015.60 1015.95 1015.91 1016.07 1016.16 1016.59 1016.48 1016.38 1016.50 1016.15 1015.77 1015.36 1014.93 1014.60 1014.52 1014.77 1014.89 1014.74 1014.44 1014.41 1015.47 1015.90 1016.26 1016.47 1016.74
1012.67 1013.23 1013.79 1013.87 1014.54 1014.30 1014.68 1014.80 1014.92 1015.33 1015.85 1016.14 1015.45 1015.13 1015.65 1015.74 1015.91 1015.99 1015.48 1015.40 1015.91 1015.55 1015.69 1016.11 1016.35 1016.45 1016.29 1015.40 1015.25 1014.81 1014.38 1014.20 1014.04 1013.77 1014.04 1014.16 1014.10 1014.41 1014.12 1014.79 1015.51 1015.83 1016.09
1012.38 1012.95 1013.36 1014.37 1014.21 1014.50 1014.56 1014.78 1014.66 1014.56 1015.01 1015.16 1014.92 1015.22 1015.96 1015.67 1015.90 1015.93 1015.40 1015.68 1015.66 1015.28 1015.77 1015.49 1015.99 1015.51 1015.63 1015.65 1014.87 1014.15 1013.85 1013.67 1013.49 1013.34 1013.32 1013.42 1013.50 1013.68 1013.87 1013.99 1014.33 1014.56 1015.19
1012.33 1012.61 1013.22 1013.91 1014.52 1014.33 1014.38 1014.26 1014.22 1014.12 1014.43 1015.14 1015.29 1016.06 1015.91 1015.51 1015.57 1015.72 1015.30 1015.30 1015.51 1015.41 1015.67 1015.75 1015.53 1015.67 1015.24 1014.65 1014.58 1013.84 1013.08 1013.10 1012.99 1013.00 1013.02 1012.76 1012.75 1013.07 1013.11 1013.57 1013.98 1013.67 1013.65
1012.03 1012.42 1013.06 1013.72 1013.97 1014.28 1014.03 1014.19 1014.20 1014.25 1014.27 1014.48 1014.57 1015.02 1015.31 1015.36 1015.38 1015.36 1015.35 1015.24 1015.43 1015.29 1015.48 1015.60 1015.55 1015.57 1014.95 1015.09 1014.91 1014.45 1013.50 1012.44 1012.44 1012.57 1012.70 1012.58 1012.53 1012.27 1012.67 1013.23 1013.42 1013.47 1013.60
1011.69 1012.17 1012.78 1013.73 1013.79 1014.01 1013.91 1014.40 1014.75 1014.57 1014.67 1014.71 1014.64 1014.47 1014.66 1015.03 1015.08 1015.08 1015.18 1015.29 1015.46 1015.44 1015.07 1015.50 1015.42 1015.37 1014.86 1015.07 1015.43 1015.71 1014.65 1013.77 1013.52 1012.45 1012.90 1012.95 1012.84 1012.65 1012.72 1013.17 1013.08 1013.07 1013.32
1011.17 1011.81 1012.42 1013.17 1013.49 1013.93 1014.14 1014.16 1014.39 1014.09 1013.93 1014.43 1014.86 1015.27 1014.76 1015.10 1015.24 1015.06 1015.22 1015.24 1015.21 1015.31 1015.45 1015.29 1015.10 1015.31 1015.35 1015.13 1015.45 1015.64 1015.37 1015.25 1014.05 1012.92 1012.98 1013.06 1013.18 1012.78 1012.64 1012.50 1012.87 1012.90 1012.79
1010.87 1011.58 1012.20 1012.86 1013.30 1013.62 1014.07 1014.22 1014.12 1014.36 1014.26 1014.77 1014.77 1015.09 1015.20 1015.16 1015.14 1015.09 1015.48 1015.64 1015.49 1015.43 1015.59 1015.49 1015.34 1015.38 1015.52 1015.31 1015.38 1015.33 1015.31 1014.95 1014.68 1014.28 1012.93 1012.88 1012.13 1011.88 1012.09 1011.88 1011.83 1011.75 1011.91
1010.66 1011.24 1011.73 1012.52 1013.07 1013.53 1013.87 1014.07 1014.21 1014.03 1014.21 1014.54 1014.85 1014.51 1015.09 1015.31 1015.54 1015.87 1015.87 1015.95 1015.99 1015.82 1015.80 1015.79 1015.68 1015.43 1015.56 1015.60 1015.34 1015.44 1015.35 1015.21 1014.79 1014.24 1012.99 1012.27 1012.43 1011.96 1012.26 1011.88 1011.52 1011.32 1011.44
Wind_Speed
9 13 10 11 10 9 10 10 11 11 13 13 15 16 16 15 15 15 15 17 17 17 17 17 14 12 10 11 16 18 18 18 18 18 17 17 15 14 13 12 13 15 13
14 14 11 11 9 10 8 9 11 12 12 14 14 14 15 16 15 14 14 17 17 17 16 14 14 15 15 16 18 19 18 15 16 16 16 16 14 13 10 13 14 14 13
13 15 14 9 10 9 7 8 10 11 12 13 13 13 14 14 16 16 15 16 18 18 18 18 17 16 17 17 15 17 16 14 13 11 11 12 12 12 12 14 14 13 12
13 13 14 10 9 8 7 10 10 11 11 11 12 12 13 13 15 17 16 16 16 17 16 18 18 17 17 17 15 15 14 14 9 3 8 9 12 10 11 12 14 12 12
11 11 15 10 9 8 9 10 10 11 10 11 10 12 11 12 13 15 16 15 15 16 15 15 16 16 15 16 16 15 13 12 7 6 10 8 9 10 9 10 13 9 8
12 12 14 10 9 8 9 9 10 10 10 10 9 11 12 12 11 12 14 16 15 15 13 13 15 15 15 15 14 12 10 8 7 8 10 6 11 11 8 10 10 11 11
10 14 13 9 8 9 8 9 9 9 9 8 10 9 11 12 11 12 13 13 13 14 13 13 13 13 11 9 9 12 11 3 7 6 7 8 11 7 8 8 8 10 8
10 10 12 10 8 7 8 8 8 8 8 8 8 9 10 10 10 10 12 10 10 12 12 12 11 11 10 10 7 8 7 2 6 6 5 9 10 6 7 8 8 9 7
10 10 10 11 9 6 6 7 8 8 7 8 7 7 8 9 9 8 8 8 8 8 9 9 9 9 7 6 6 6 5 0 4 5 8 7 8 2 5 6 7 7 6
8 7 8 7 8 6 9 6 6 6 8 7 7 6 7 9 8 7 7 7 6 7 6 6 5 5 5 4 4 3 1 6 2 7 5 9 7 3 4 4 4 6 5
7 7 6 9 7 6 2 4 6 4 4 6 9 6 8 5 7 10 11 6 4 5 6 5 4 3 2 4 3 2 10 1 7 3 3 12 6 6 5 5 4 3 5
10 9 6 4 7 8 6 2 4 4 4 2 3 5 3 4 2 4 7 4 3 3 4 4 4 4 7 4 6 8 5 2 4 3 4 12 9 8 7 8 7 7 6
9 9 8 5 4 6 6 4 2 2 0 3 4 4 4 3 4 4 4 7 7 9 9 10 10 8 4 3 3 5 2 4 3 4 9 12 8 9 10 10 10 9 10
8 7 8 9 5 3 3 5 5 3 3 4 5 5 3 3 3 2 2 3 3 4 2 3 3 4 5 6 8 6 6 5 5 4 4 14 10 12 12 12 12 13 13
9 9 8 7 6 5 5 3 3 3 4 3 4 6 3 4 4 3 4 3 5 2 4 4 4 5 5 7 7 7 7 8 8 5 5 14 12 13 14 14 14 15 16
8 9 9 8 7 7 5 4 4 4 1 0 3 1 3 5 2 4 3 4 5 3 3 2 4 5 6 6 5 8 8 9 8 9 7 7 15 14 14 16 17 15 17
8 8 9 8 9 7 6 5 4 4 7 1 0 5 4 3 2 3 3 1 2 5 5 5 5 6 5 7 7 8 9 10 10 10 10 9 9 17 16 17 16 14 17
7 4 7 8 9 9 6 4 4 3 1 3 1 3 4 3 2 3 2 1 2 4 2 3 4 4 5 6 7 6 6 7 7 9 9 9 9 8 17 17 16 15 16
8 9 10 9 7 7 6 5 5 6 2 0 4 2 3 3 4 5 3 1 4 4 1 4 3 3 5 6 6 7 8 6 7 8 8 9 9 8 7 15 17 15 15
9 9 8 5 7 8 5 5 4 3 7 6 3 1 3 3 5 4 4 3 5 4 3 5 3 6 4 6 6 7 7 6 6 7 8 8 9 9 9 8 8 12 18
9 8 7 9 7 7 7 6 5 5 4 3 2 4 5 6 5 5 5 4 5 3 6 4 5 5 6 6 6 7 6 8 9 7 7 7 6 7 8 8 7 7 8
10 9 8 10 10 9 7 4 2 2 4 2 1 3 6 6 5 6 5 5 4 6 4 6 5 5 5 4 6 6 6 2 6 4 3 4 4 4 5 7 8 9 8
11 11 9 9 10 10 5 4 3 3 3 4 4 3 1 3 5 5 5 4 6 6 5 4 4 5 7 5 3 3 5 1 7 1 2 4 2 2 4 5 8 7 8
11 10 10 13 11 8 7 5 5 6 2 4 1 2 2 2 1 2 2 4 4 4 5 5 3 4 4 5 3 3 6 4 5 5 1 2 5 5 5 6 5 7 8
11 10 10 11 11 8 8 6 6 6 3 2 1 2 2 4 3 4 3 4 2 1 1 3 1 2 3 5 2 3 5 5 8 7 8 4 6 3 5 5 6 7 7
12 10 10 11 11 10 10 9 9 6 5 4 3 3 3 2 5 4 5 4 4 2 1 3 5 5 4 5 4 4 5 4 4 6 8 9 4 6 2 8 6 5 5
Wind_Direction
143 117 137 141 121 95 79 81 88 81 86 81 81 82 82 80 80 85 95 101 120 123 127 124 128 128 126 115 109 111 107 108 109 109 104 105 109 108 114 127 148 104 101
132 128 143 133 118 99 90 87 88 85 88 88 81 86 81 79 76 75 82 98 104 123 121 128 134 130 121 109 100 100 103 105 105 108 112 104 109 112 107 83 72 95 99
133 127 141 137 118 105 99 105 89 89 85 93 93 89 90 86 84 80 89 95 103 110 106 99 105 110 106 101 100 99 98 98 107 120 158 104 104 112 106 103 105 101 100
132 141 135 131 126 122 119 100 98 95 97 90 92 92 89 82 89 88 92 99 102 100 101 99 99 103 99 99 96 94 98 92 91 155 115 122 107 98 99 104 104 109 110
138 134 110 138 144 158 117 104 96 94 103 94 90 95 97 94 85 88 93 101 105 98 97 97 101 94 98 102 97 94 95 100 94 128 103 93 112 104 113 116 123 122 88
133 124 130 149 146 133 113 119 103 90 95 98 86 87 91 90 99 91 96 105 102 96 97 101 98 102 98 101 87 86 85 106 176 90 98 121 85 112 120 93 94 97 91
141 117 133 138 129 119 111 100 107 105 93 96 95 96 93 96 95 105 97 96 101 104 108 105 106 102 98 90 92 91 94 121 92 88 94 101 101 130 116 111 112 101 104
128 124 130 125 110 112 101 95 98 108 111 102 99 100 101 97 97 101 104 105 106 106 110 113 111 101 96 93 99 89 101 237 115 102 85 93 105 129 128 121 116 111 116
132 130 130 138 126 121 99 97 94 105 110 118 103 111 108 106 102 98 105 108 104 103 112 111 105 100 102 96 77 62 96 313 176 111 142 126 113 149 142 132 133 127 128
128 129 128 143 123 156 146 114 107 97 109 121 123 110 112 123 123 123 136 116 125 131 111 115 110 102 95 81 73 30 313 199 205 154 124 92 112 150 154 149 151 149 140
156 164 160 135 138 91 99 98 153 132 117 137 151 135 192 156 157 177 76 102 114 130 139 124 147 147 171 173 169 273 280 111 147 155 127 118 163 196 185 181 178 165 169
164 158 163 143 144 146 150 134 292 122 160 193 121 160 201 139 107 23 112 135 142 156 179 174 190 206 228 219 176 206 243 99 229 182 116 137 186 203 211 204 200 199 206
168 157 172 162 178 162 97 189 220 234 224 164 201 229 138 179 181 198 143 180 175 177 202 191 184 217 220 283 253 275 272 240 231 215 111 149 190 212 220 223 214 215 213
167 169 170 163 173 210 190 188 192 164 225 209 205 205 185 252 199 223 177 243 212 218 236 245 252 280 253 237 247 275 263 252 261 260 173 157 186 215 224 227 228 222 217
177 180 177 165 180 207 212 245 277 179 179 231 227 184 215 196 214 232 181 202 272 196 218 223 233 231 231 240 240 231 261 267 269 264 269 156 190 221 228 234 235 228 223
187 177 173 184 187 205 222 244 287 280 315 149 238 182 210 283 215 219 226 213 183 261 245 263 250 244 243 252 245 265 259 249 229 254 269 220 185 214 229 234 233 230 227
182 183 185 197 186 205 217 229 243 282 81 269 245 172 233 237 135 295 195 280 261 225 243 268 259 241 257 267 245 251 242 247 259 247 242 247 209 197 215 226 234 229 222
178 203 225 202 194 191 204 216 257 262 337 262 166 219 192 180 229 230 211 178 227 257 197 252 271 275 256 252 259 253 257 245 241 249 252 258 254 256 190 211 223 227 222
213 204 203 211 198 203 190 227 241 111 245 232 247 245 129 189 189 266 251 195 227 259 180 215 200 230 268 227 232 232 236 247 236 234 243 245 241 244 256 181 207 222 227
209 217 214 217 210 204 187 208 236 214 180 208 230 61 266 260 234 244 248 259 251 247 254 280 279 286 283 279 290 293 289 269 257 243 230 232 237 237 238 244 212 213 214
194 196 203 193 216 201 189 201 206 210 189 211 254 208 225 244 231 230 269 245 256 275 281 275 277 289 289 274 287 280 246 232 235 229 241 243 242 241 234 233 243 259 205
194 200 191 209 198 208 181 211 268 229 185 228 261 233 229 246 254 249 256 276 302 293 275 261 253 269 270 253 304 288 303 265 190 218 233 264 289 257 218 234 253 246 254
206 209 202 188 189 203 176 192 194 183 179 207 217 221 143 241 250 248 258 271 278 279 267 281 271 236 294 6 276 293 300 334 341 149 257 312 268 260 247 253 255 255 244
200 207 199 191 182 185 185 197 200 248 269 28 326 312 295 121 153 209 240 270 275 325 305 305 248 305 307 304 347 250 262 282 306 298 232 275 259 263 280 271 242 272 244
172 182 185 187 192 205 186 227 213 230 130 259 318 153 69 98 14 7 12 351 326 277 36 317 288 280 299 314 308 247 251 248 241 257 295 245 255 298 297 277 279 248 252
167 183 183 187 187 188 205 208 218 223 221 205 168 177 55 88 126 80 72 52 31 39 31 322 324 303 318 297 298 303 283 297 311 272 270 295 312 280 322 290 285 272 257